ECMWFFLT2_500_spd_198.txt.gz
Wind_Speed
37 32 28 26 24 22 20 20 21 21 20 22 23 20 17 15 12 12 9 6 5 3 3 3 2 3 4 6 7 8 8 7 7 8 8 8 8 8 8 8 8 9 9 10 10 10 11 11 12 12 12 13 13 13 14 14 14 14 15 15 15 15
36 32 29 27 24 23 21 21 23 23 25 27 27 25 18 17 14 13 11 7 5 3 2 2 1 2 3 6 7 8 8 7 7 7 8 8 8 9 9 10 10 10 11 11 12 12 12 12 12 11 11 12 12 13 13 14 14 14 14 15 15 15
37 33 30 29 26 25 24 24 25 26 29 29 30 27 19 18 15 15 12 9 6 4 3 1 0 1 3 5 7 8 9 8 7 7 7 8 9 9 10 11 12 13 12 12 13 13 12 12 11 11 10 10 11 12 12 13 13 13 13 14 14 15
38 35 33 31 28 27 27 29 28 29 32 31 32 28 21 20 16 15 12 10 8 5 3 2 1 1 3 5 6 8 9 8 8 7 7 8 9 10 11 12 13 13 13 13 13 13 12 12 11 11 10 10 10 10 11 11 11 12 12 12 13 14
39 37 35 33 32 30 29 31 32 32 33 33 35 30 23 21 17 15 12 10 9 7 5 3 2 1 3 4 6 7 8 9 9 8 8 8 9 10 12 13 13 13 12 12 12 12 12 12 11 11 10 10 10 10 9 9 9 10 10 11 12 13
40 39 37 36 36 33 30 32 34 34 35 36 36 31 24 21 19 16 13 11 9 7 6 4 2 1 2 4 6 7 8 9 9 9 9 9 9 11 12 13 13 12 11 11 11 12 12 12 11 10 10 10 10 11 11 10 10 10 10 11 12 12
41 41 39 38 37 33 31 33 35 36 37 38 36 32 26 22 21 18 16 13 9 8 7 5 3 2 1 3 5 6 8 9 10 10 10 9 10 10 12 12 12 12 10 10 10 11 11 11 11 10 9 9 9 10 11 11 12 12 12 13 14 14
43 42 40 40 37 33 33 33 35 38 40 39 36 36 29 24 24 20 18 16 12 10 8 6 4 3 1 2 4 6 7 9 10 10 10 10 10 10 11 12 12 11 10 9 9 10 11 12 11 10 9 8 9 9 10 11 12 13 14 15 16 17
43 42 41 40 38 35 33 29 33 39 41 40 39 39 31 26 26 22 21 18 15 12 9 7 5 4 2 2 3 5 6 8 10 11 10 10 10 10 10 10 11 11 11 10 10 11 12 12 12 11 10 9 9 9 10 11 12 13 14 15 17 18
44 44 43 42 40 38 34 30 33 40 42 41 41 41 33 30 28 24 23 21 18 15 11 10 7 6 3 1 2 4 5 7 9 10 10 10 10 9 9 9 9 10 10 10 10 11 12 12 13 12 11 10 10 10 10 11 12 13 14 15 16 17
45 45 45 43 41 38 35 32 34 39 41 42 44 41 35 33 32 28 26 24 22 17 13 12 10 8 5 2 1 3 4 6 8 10 10 10 10 9 8 8 9 9 9 9 10 11 11 11 12 13 12 11 11 11 11 12 13 14 15 16 16 17
46 47 47 45 41 37 35 34 36 39 40 42 44 39 35 35 35 32 28 23 24 20 16 16 13 10 7 4 2 2 3 5 6 9 10 10 10 9 8 8 8 9 8 8 8 10 10 10 11 12 12 12 12 12 12 13 14 15 16 17 18 18
47 48 48 46 42 39 37 37 38 39 39 40 41 38 36 36 32 32 28 23 25 22 20 19 17 14 10 6 4 2 1 3 5 7 9 10 10 9 8 8 8 9 9 8 8 9 9 9 10 11 12 12 12 13 14 14 15 16 17 18 19 19
49 50 49 47 43 41 40 39 39 38 38 39 38 37 38 34 29 30 28 24 25 24 23 22 19 17 13 10 7 4 2 1 3 5 7 9 10 9 9 9 9 9 9 9 9 9 9 9 10 11 12 12 12 14 15 15 15 16 17 19 20 21
51 51 50 48 46 44 43 42 39 37 38 40 39 40 39 35 30 28 27 25 25 26 25 23 22 20 16 13 10 7 4 2 1 3 5 7 9 10 9 9 9 10 10 10 10 10 9 9 9 11 12 12 13 14 14 15 16 17 18 19 20 21
53 52 51 50 49 46 45 43 39 39 42 42 40 40 38 34 30 28 29 28 26 26 25 23 23 21 17 14 11 9 7 5 3 3 3 6 8 10 10 9 10 11 11 12 11 11 10 9 9 10 12 12 13 14 14 15 16 17 18 19 20 21
55 54 53 52 51 48 46 43 38 38 41 43 40 39 37 33 31 30 31 32 29 27 25 23 22 20 17 13 12 10 9 8 6 4 3 4 7 9 10 10 10 11 12 13 12 12 11 9 9 10 11 12 13 14 14 15 16 17 18 19 20 21
57 56 54 53 51 49 46 42 37 35 39 41 40 38 35 32 32 31 31 32 31 28 27 24 22 19 16 12 12 13 11 10 8 6 4 2 5 7 9 10 11 11 12 12 13 12 11 10 9 10 11 12 13 13 14 15 16 17 18 19 20 21
58 56 55 55 54 50 47 43 39 37 37 39 40 39 35 33 33 32 31 32 30 29 28 25 21 17 14 10 10 13 13 12 10 8 6 3 3 6 8 10 11 11 11 12 12 13 13 11 10 11 12 12 13 13 14 15 16 17 18 19 20 22
60 58 57 57 55 50 48 46 42 38 35 37 40 39 37 37 36 33 33 32 29 29 29 26 21 16 13 10 7 9 13 13 11 10 7 4 3 5 8 10 11 11 11 12 12 13 13 13 11 11 12 12 13 13 13 14 16 17 18 19 20 21
62 60 57 56 54 50 49 48 43 39 36 38 39 40 40 40 39 35 33 32 31 30 29 26 22 17 14 10 6 5 9 12 12 11 8 6 4 5 7 9 11 11 12 12 12 13 14 13 12 12 12 12 12 13 13 14 15 17 18 19 20 22
64 61 56 54 52 50 49 47 44 41 39 39 40 41 41 40 39 36 33 32 33 32 29 26 23 19 15 10 6 4 5 9 11 11 9 8 6 5 7 9 10 12 12 12 13 13 14 14 14 13 13 12 12 13 14 14 15 16 18 19 20 22
64 61 57 54 51 50 50 48 46 43 41 41 42 43 42 40 39 37 34 34 33 32 31 27 23 20 16 11 9 7 5 7 9 11 11 10 8 7 8 9 10 11 12 13 13 13 14 15 15 14 13 13 12 13 13 14 15 15 17 20 21 21
63 62 58 55 52 51 51 51 49 45 43 44 44 44 43 41 40 39 38 36 33 33 33 30 25 21 18 14 12 10 8 7 8 10 12 11 10 9 10 10 10 11 12 13 14 14 14 15 16 15 14 13 13 13 13 14 14 15 16 19 21 21
63 62 59 56 54 53 54 56 54 50 48 49 48 47 46 43 42 42 40 36 34 36 35 32 27 23 20 18 16 13 11 8 7 8 10 11 11 11 11 11 11 12 13 14 14 15 15 15 16 16 15 14 13 13 13 13 15 16 16 18 20 21
64 63 60 58 57 56 58 59 57 55 53 51 49 47 45 43 43 42 39 37 38 39 38 34 29 25 23 22 19 16 13 9 8 9 9 10 11 12 12 12 12 13 13 14 14 16 16 16 16 16 15 14 14 13 12 12 14 15 16 18 19 20
65 63 61 60 59 59 61 61 59 57 54 50 47 45 43 42 42 41 39 40 41 42 41 37 32 26 24 24 22 18 14 10 9 10 10 10 11 13 13 12 13 14 14 14 14 15 16 16 16 16 16 15 14 13 13 13 13 14 16 17 18 18
67 64 62 62 61 61 62 62 60 57 54 52 49 46 43 42 42 42 41 39 40 43 43 39 33 27 25 26 23 19 16 13 11 12 12 11 11 13 14 14 13 14 15 16 15 15 16 16 16 16 16 15 14 14 13 13 13 13 14 16 17 17
68 66 63 63 63 62 62 63 62 58 54 52 51 48 45 44 45 44 41 39 39 40 41 40 34 27 27 28 24 20 18 16 14 14 13 11 12 14 16 15 15 15 16 17 16 15 16 16 16 16 16 15 15 15 14 13 13 12 12 14 16 17
69 67 65 64 64 63 63 62 61 58 55 54 53 50 48 47 47 46 43 40 38 36 38 40 35 29 30 29 25 21 20 19 18 17 14 12 12 14 17 17 16 16 17 17 17 16 16 16 16 16 17 16 16 16 15 13 13 12 12 13 15 16
69 68 66 66 65 64 63 61 57 55 54 55 55 53 50 49 48 46 44 42 38 35 39 42 36 31 32 30 25 22 22 22 21 20 17 14 13 14 16 18 17 17 17 18 17 17 17 17 16 17 17 17 16 16 16 14 13 11 12 13 14 15
69 68 68 67 66 64 63 61 58 55 54 55 56 54 52 50 49 47 45 42 39 37 41 44 37 33 32 30 27 24 23 24 23 23 20 16 14 14 15 17 18 18 18 18 18 17 17 18 17 17 18 17 17 17 16 15 14 12 12 13 13 14
70 69 68 67 66 64 63 62 60 58 57 56 56 55 54 52 51 49 46 43 41 38 41 44 38 33 33 31 28 26 25 25 26 25 21 17 16 15 15 17 18 18 18 18 18 17 17 18 18 18 18 18 17 17 16 16 15 13 12 13 12 13
70 69 69 68 66 64 63 62 61 61 61 59 56 56 57 56 54 52 48 44 42 38 39 42 39 34 34 32 30 28 27 27 27 25 21 18 17 17 17 17 18 19 18 18 18 17 18 18 18 18 18 18 17 17 17 17 16 14 12 12 12 13
70 70 69 68 67 65 63 62 64 64 63 59 56 55 54 54 53 52 47 43 41 40 41 42 40 36 35 34 31 30 28 28 27 24 20 19 19 18 18 18 18 19 18 18 17 17 18 18 18 19 18 18 17 17 17 17 17 16 14 13 13 13
69 69 68 68 67 67 65 64 66 66 62 59 57 56 51 49 51 51 46 41 38 40 42 42 40 37 36 34 32 31 30 29 26 24 21 20 20 20 19 18 18 19 18 18 17 17 18 18 18 19 18 17 17 17 17 18 18 18 16 15 14 13
70 69 68 68 68 68 67 66 66 65 63 61 59 56 52 49 51 50 46 41 34 32 37 40 38 36 35 34 33 32 31 29 27 25 22 21 21 20 20 20 20 20 20 19 17 17 18 18 19 19 18 18 17 17 18 19 19 19 17 16 15 15

ECMWFFLT2_500_spd_204.txt.gz
Wind_Speed
39 39 37 37 35 32 31 32 31 30 28 26 25 25 24 23 22 22 24 25 23 21 21 20 19 16 12 10 8 6 5 5 4 2 1 0 1 3 4 5 7 8 9 9 10 11 11 12 14 14 14 14 13 14 13 13 14 14 13 15 17 18
42 42 40 38 35 34 34 34 32 31 29 26 25 25 25 24 23 22 23 24 22 21 20 19 19 16 12 11 9 7 5 5 4 2 1 1 2 4 5 6 7 9 9 10 11 12 12 14 14 14 13 13 13 13 12 13 15 14 13 15 17 17
43 43 41 38 37 37 36 35 33 32 29 26 25 25 25 25 23 22 22 22 20 20 20 20 19 16 11 9 8 6 5 5 3 2 2 2 3 4 6 7 8 9 10 11 12 13 14 14 13 13 13 13 13 12 12 14 14 13 14 16 17 17
42 43 41 36 39 41 38 37 35 33 31 27 25 25 26 24 24 23 22 19 18 19 21 21 18 14 12 9 7 6 5 4 3 2 2 3 3 5 6 7 8 9 10 11 11 13 14 12 12 13 13 13 12 12 13 13 12 13 14 16 17 17
43 43 40 36 40 44 41 38 36 34 32 29 26 26 26 25 25 23 20 17 16 19 23 21 18 16 13 10 8 7 6 5 4 3 3 4 4 5 5 6 7 8 9 10 11 13 12 11 12 13 11 11 11 12 13 11 13 14 14 16 17 18
44 43 41 39 40 45 43 38 36 34 32 29 27 28 28 27 26 22 19 16 15 19 23 22 20 18 14 11 8 7 6 5 5 5 5 4 5 5 6 6 7 8 9 10 11 11 10 10 11 11 10 10 11 11 11 11 13 14 14 15 17 18
45 43 42 40 38 41 41 36 36 34 33 32 32 32 30 28 26 22 21 19 16 18 22 21 18 16 14 11 9 7 6 5 6 6 6 5 5 6 7 7 8 9 10 11 11 10 10 10 9 9 9 9 9 10 11 12 12 14 14 15 17 19
43 43 42 40 37 36 36 34 34 35 35 35 33 32 32 29 26 23 22 20 16 17 20 19 15 14 14 12 10 8 7 6 6 6 6 6 7 7 7 7 8 9 10 11 10 10 10 10 8 8 8 8 9 10 11 12 12 13 15 15 17 19
41 42 41 40 37 35 34 33 34 35 35 32 30 31 32 29 26 25 24 21 18 18 20 18 16 16 14 13 11 9 8 6 6 6 6 6 7 7 8 7 8 9 10 10 10 11 11 10 8 7 8 9 9 10 10 12 12 13 15 16 17 18
40 40 40 40 38 37 36 35 35 36 34 31 29 31 31 28 27 27 25 23 20 19 21 20 16 16 15 13 12 10 9 7 6 6 6 6 7 7 7 7 8 9 9 10 10 11 11 9 8 8 8 8 8 9 11 12 12 12 15 16 17 18
38 39 41 41 39 40 38 37 37 36 34 31 31 31 31 29 29 30 27 25 21 20 22 21 18 16 15 14 12 11 10 8 7 6 5 6 6 6 7 7 7 8 8 9 10 10 10 9 9 8 7 7 8 9 11 13 13 12 14 16 16 18
38 40 42 43 43 43 41 41 41 38 35 34 33 34 33 32 32 31 29 26 23 21 23 23 21 17 16 14 12 11 10 9 7 6 5 6 6 6 6 7 7 8 8 9 10 10 10 10 9 8 7 7 7 9 11 13 13 12 14 17 17 18
45 47 48 47 46 47 45 44 44 41 38 37 37 37 36 35 33 32 30 27 26 23 23 25 22 18 17 16 13 11 10 9 8 6 5 5 5 5 5 6 7 7 8 9 10 11 10 10 8 7 7 8 9 11 13 14 15 14 14 16 18 19
49 49 51 50 48 48 49 47 46 43 40 39 39 39 38 36 34 32 31 29 28 24 23 25 23 19 18 16 14 12 10 9 8 6 5 4 4 5 5 6 7 7 8 10 11 11 11 10 8 7 7 8 10 12 13 15 17 17 15 17 18 19
47 44 45 48 48 49 51 50 48 44 41 41 41 41 40 37 34 32 30 29 29 26 24 25 24 21 20 18 16 14 11 9 8 7 5 4 3 4 5 6 6 7 9 10 11 12 12 11 8 7 7 9 11 12 14 16 17 18 16 17 19 19
47 43 44 49 52 52 53 52 50 46 42 43 45 43 41 38 34 32 31 30 29 27 25 26 26 23 22 20 18 16 12 10 9 8 6 4 3 3 4 5 6 7 9 10 11 11 11 10 8 8 8 10 12 13 15 17 18 19 18 16 18 19
51 49 50 53 57 58 56 54 52 49 45 46 47 44 42 39 35 34 33 31 29 29 27 26 28 26 24 22 20 16 13 11 10 9 8 5 3 2 3 4 6 7 9 10 11 11 10 9 9 9 10 11 12 13 14 17 19 20 20 17 17 19
57 57 55 53 55 57 57 56 55 52 48 48 47 44 42 39 35 35 35 32 30 31 29 26 29 29 26 23 20 17 14 11 11 10 9 7 4 2 2 3 5 7 9 10 10 10 10 10 10 9 10 11 11 13 14 16 18 20 21 19 18 19
60 59 56 53 54 54 54 55 57 56 51 49 47 44 42 39 36 36 37 34 32 33 30 26 29 31 27 22 20 18 15 13 12 11 10 9 7 4 2 2 4 6 8 9 10 10 10 10 10 10 10 10 11 12 14 15 18 20 20 19 18 18
59 55 54 55 56 55 55 54 54 56 53 50 48 45 43 40 37 37 38 36 34 34 31 26 29 32 28 24 23 20 17 15 14 13 11 10 9 6 3 1 3 5 7 8 9 10 10 10 10 10 10 10 11 12 13 14 17 19 20 19 17 17
61 55 53 55 55 53 56 57 52 52 52 50 48 46 44 42 39 38 38 37 36 34 31 28 30 33 30 28 27 24 20 17 16 15 13 11 10 8 5 2 1 3 5 6 8 10 11 11 10 10 10 10 11 12 14 14 16 18 20 20 17 16
64 60 57 55 52 48 48 52 52 49 50 50 49 47 45 42 40 40 39 38 37 35 32 30 31 34 33 31 30 27 23 20 18 18 15 14 12 9 7 4 2 1 3 5 7 9 11 11 11 10 10 10 10 12 14 15 16 17 19 21 19 17
65 64 61 57 53 48 44 46 50 50 50 50 49 47 46 43 42 42 40 38 37 36 35 31 32 36 35 33 33 29 25 21 20 20 17 15 13 10 9 6 5 3 3 4 7 8 11 12 12 12 11 11 10 10 12 14 16 17 18 21 21 19
66 64 63 59 53 50 48 46 49 52 54 54 53 51 50 47 45 44 41 38 37 38 36 30 32 37 36 33 33 29 25 23 23 22 19 17 14 12 10 8 6 5 4 4 6 7 10 12 13 13 12 12 12 11 12 13 15 17 18 20 22 21
67 66 63 60 55 52 51 49 50 53 57 58 59 57 54 51 48 45 42 38 37 38 35 31 33 38 35 32 30 26 22 24 25 24 21 18 15 13 11 9 8 6 6 5 5 6 9 12 13 14 14 13 13 12 13 13 13 15 17 18 21 21
68 67 63 60 58 56 55 54 52 52 54 55 57 57 54 51 49 46 41 38 38 39 38 36 36 37 33 29 27 24 22 23 25 23 20 17 15 14 12 10 9 7 7 6 4 5 7 10 13 14 15 15 14 14 13 14 13 13 15 17 19 21
68 66 64 61 60 59 58 58 56 53 53 52 54 55 52 51 51 47 41 39 41 41 39 38 38 35 31 27 25 22 21 22 23 21 18 16 14 13 11 10 9 8 8 7 5 4 5 8 11 14 15 16 15 15 15 15 15 14 14 16 18 19
68 66 65 63 62 61 60 59 58 55 54 53 55 57 54 53 53 48 43 43 43 40 37 36 36 34 31 28 25 23 21 20 21 19 16 14 12 11 10 9 8 8 8 8 7 6 6 7 10 13 15 16 16 16 16 16 15 15 15 16 17 18
69 67 66 65 64 63 61 59 57 55 54 54 56 58 56 56 55 48 44 45 42 37 34 34 34 34 32 28 25 25 23 21 20 18 16 14 13 12 10 8 8 8 9 8 8 8 8 8 9 12 14 16 16 16 17 16 16 15 15 15 16 17
70 69 68 67 65 63 61 60 58 55 53 52 55 59 56 55 55 49 46 45 40 36 35 35 35 35 33 29 26 26 25 23 22 19 17 15 14 12 9 8 8 8 7 7 7 8 9 9 9 11 13 15 16 16 17 17 16 16 16 15 16 17
71 70 70 68 66 63 61 60 60 58 55 51 53 58 55 53 52 47 45 44 39 38 38 37 38 37 33 30 26 26 26 25 25 21 19 17 15 13 9 8 8 7 5 5 6 8 9 9 9 11 13 15 17 17 17 17 17 16 16 16 16 17
73 72 70 69 66 64 63 61 60 60 58 54 52 56 56 54 52 46 42 42 40 39 40 39 39 36 33 30 26 26 25 25 25 24 21 19 17 14 10 8 9 7 5 5 6 8 9 9 9 10 12 15 17 18 18 18 17 17 16 16 16 17
74 73 71 70 67 66 64 62 61 61 61 58 53 54 57 57 53 47 42 42 42 40 39 38 37 34 31 29 27 27 25 23 25 26 24 23 21 17 12 10 10 8 6 6 7 8 9 10 10 10 12 14 17 18 19 19 18 17 16 16 16 17
74 75 72 70 69 68 65 63 63 62 61 62 56 52 56 58 54 49 45 44 45 42 38 37 34 32 31 30 30 29 26 24 25 27 28 26 23 19 14 12 11 9 8 8 8 8 9 9 10 11 12 14 17 19 20 20 19 17 17 16 17 18
73 77 73 70 70 69 67 65 64 61 57 60 59 53 55 60 55 50 47 46 47 44 40 37 34 34 33 32 33 31 27 25 26 29 30 28 25 22 17 14 13 11 11 10 8 8 8 9 10 11 13 14 16 19 20 20 19 18 17 17 17 18
72 77 75 70 70 70 68 66 65 63 58 57 57 54 55 60 57 51 48 47 48 46 41 37 36 35 35 34 33 30 27 26 27 29 30 30 28 24 20 17 15 13 13 11 9 8 8 9 10 11 13 14 15 18 20 21 20 18 17 17 18 19
71 77 76 71 71 70 69 67 64 64 63 58 56 53 54 60 57 51 50 49 48 46 42 38 37 36 36 34 33 30 28 27 27 27 30 32 31 26 22 19 17 16 15 13 11 10 9 10 10 11 12 13 14 16 19 21 20 19 18 18 18 19

ECMWFFLT2_500_spd_210.txt.gz
Wind_Speed
32 33 34 33 31 29 26 24 25 23 21 24 24 24 22 21 20 19 18 18 18 18 17 17 18 19 19 18 18 18 18 18 17 16 14 12 11 10 9 9 7 6 4 2 3 4 7 10 10 9 7 7 8 8 9 10 12 14 14 14 15 16
31 33 35 35 33 31 28 27 27 26 23 22 23 24 24 22 22 20 19 20 20 19 18 18 19 18 18 18 17 17 17 17 17 15 13 11 12 11 10 9 7 5 2 2 3 5 8 10 10 8 6 6 8 9 10 12 13 14 14 14 15 17
29 31 33 34 33 32 30 29 29 27 24 23 25 27 26 24 23 22 21 22 22 20 18 18 18 17 17 16 15 14 15 16 17 15 13 12 12 11 9 8 6 4 0 2 3 6 8 9 9 9 6 6 8 9 11 12 13 14 14 14 16 19
28 29 31 31 32 32 31 31 29 28 26 27 30 31 28 25 24 23 22 23 22 20 18 17 16 15 15 15 13 12 15 16 16 14 11 10 11 10 8 7 5 2 1 2 4 6 8 8 9 8 6 6 8 10 11 11 12 13 14 15 18 20
28 28 28 29 30 31 31 32 30 28 29 31 33 33 30 25 24 24 23 23 23 21 18 16 15 13 13 12 11 11 14 15 15 12 8 8 9 9 7 5 3 1 2 3 4 6 7 8 8 7 6 7 9 10 11 11 12 12 15 17 19 21
28 28 28 27 28 30 31 32 32 31 31 32 32 31 30 26 25 25 24 23 23 21 18 16 14 12 12 10 9 11 14 15 14 12 8 7 8 7 5 3 2 1 2 3 5 6 6 8 8 7 7 8 9 11 11 11 11 12 16 18 19 20
30 29 28 27 27 29 29 30 32 33 34 33 32 30 28 26 26 26 26 25 24 21 18 16 14 11 11 9 9 11 14 15 15 13 8 6 8 6 4 2 2 1 2 3 5 6 7 8 7 6 7 7 9 11 11 10 11 14 17 18 19 20
32 31 30 28 26 28 30 31 32 33 34 34 35 34 30 28 28 28 26 26 25 21 17 17 15 12 10 9 10 12 13 14 14 12 9 8 8 6 4 3 2 1 2 3 5 6 7 8 6 6 7 6 8 10 10 11 13 15 17 18 19 19
35 33 32 30 27 27 30 33 33 33 34 34 35 35 35 31 29 28 27 26 24 20 18 18 16 13 10 10 12 13 14 15 13 11 10 9 8 7 5 4 3 1 2 3 6 7 8 8 5 5 5 5 8 10 10 11 13 15 16 18 19 18
36 36 34 32 30 29 30 32 34 34 34 35 34 32 36 36 32 29 27 25 23 21 19 19 18 14 10 10 13 14 15 15 13 12 11 9 8 7 6 5 3 2 2 4 6 7 7 6 4 4 3 5 8 9 9 11 13 14 15 17 18 17
38 38 37 34 33 32 31 32 34 36 35 35 34 32 36 40 36 31 27 25 23 22 21 20 18 14 10 10 12 15 16 15 14 12 10 9 8 7 6 5 4 2 2 4 5 6 5 5 3 3 3 5 7 7 9 11 12 13 14 16 17 17
38 40 39 37 36 34 34 34 35 37 36 35 35 35 37 42 38 32 29 25 24 23 20 19 18 13 9 10 12 15 16 15 14 11 10 8 7 7 6 5 4 2 2 4 4 5 5 4 2 3 4 4 5 6 8 10 11 12 13 15 17 18
38 41 41 39 38 37 36 36 36 37 36 36 36 33 33 40 37 33 29 26 25 23 19 18 17 12 9 10 12 15 16 15 13 11 9 7 6 6 6 5 3 2 2 3 4 5 5 4 3 3 5 4 3 5 7 9 10 11 13 15 17 18
39 42 43 42 42 40 39 39 39 39 37 37 36 31 29 34 35 34 30 28 26 22 19 19 17 13 11 12 14 16 16 15 14 12 9 7 6 6 6 5 3 2 2 2 3 5 5 4 4 4 4 4 2 4 7 9 10 11 13 15 16 17
41 43 45 46 45 44 43 43 42 42 40 37 36 33 31 33 36 35 31 28 26 21 19 20 18 15 13 14 15 17 17 17 17 14 10 8 8 7 6 5 3 2 2 2 3 4 5 5 5 4 2 3 3 4 8 9 9 10 12 14 15 16
45 45 46 47 47 46 44 43 42 42 41 40 39 38 36 36 36 35 30 27 26 22 21 21 20 17 15 15 16 18 19 19 17 13 11 10 9 7 6 5 3 2 1 1 2 4 5 7 5 3 2 2 3 5 8 8 9 10 11 13 14 16
47 47 48 48 47 46 44 42 41 42 42 41 41 40 39 38 38 36 30 27 26 24 22 22 22 20 17 17 17 18 20 20 16 14 12 11 9 7 6 4 3 2 1 0 2 4 6 8 7 6 4 3 4 6 7 7 8 9 10 12 14 15
50 50 50 49 49 48 47 45 43 44 44 43 41 41 41 39 39 37 31 30 29 26 25 24 23 22 20 19 17 17 20 20 18 16 14 12 10 7 6 4 3 3 2 0 1 4 5 7 7 7 6 6 6 6 6 6 7 9 10 12 13 14
52 52 52 52 51 49 49 48 46 45 46 45 43 41 43 41 38 37 34 33 32 29 27 26 25 24 22 21 18 17 20 22 21 18 15 13 11 8 6 5 4 3 2 1 1 3 5 7 7 7 8 8 7 6 6 7 8 9 10 11 12 12
54 54 53 54 54 50 46 44 43 45 47 47 44 43 44 44 39 38 36 35 35 32 30 28 27 25 23 22 19 19 22 23 22 19 16 15 12 10 7 6 4 3 2 1 1 3 6 8 8 10 10 10 9 7 7 8 8 8 9 10 11 11
57 56 55 55 57 52 46 43 40 42 46 48 47 46 47 46 42 40 40 38 37 34 32 30 29 26 25 24 21 22 24 25 23 20 18 16 13 11 9 6 5 3 2 0 2 4 6 8 9 9 10 9 9 8 8 8 7 7 8 10 11 11
60 58 56 56 58 53 48 47 42 39 44 48 49 50 52 50 46 44 43 41 39 36 34 31 30 28 27 25 23 24 26 26 24 22 20 16 12 11 10 8 6 4 2 1 2 3 5 6 7 7 8 8 8 8 7 7 7 7 8 9 10 11
61 60 57 57 58 54 47 47 44 41 44 48 49 51 55 55 49 46 45 44 42 39 36 33 31 30 29 26 25 26 27 28 26 23 21 17 13 12 11 10 8 6 3 3 4 4 4 5 6 6 8 9 9 8 8 8 8 8 8 8 9 9
62 61 59 58 56 54 50 47 48 46 46 47 48 49 54 57 53 49 47 45 41 38 36 34 33 32 31 28 27 28 29 30 28 24 21 18 15 14 13 12 10 8 6 5 6 6 6 6 6 6 7 9 11 10 9 9 9 8 8 7 8 8
63 61 60 59 56 55 53 51 51 51 49 48 49 49 51 56 55 51 48 43 38 37 37 36 35 34 32 30 28 29 31 31 30 25 21 19 17 16 15 13 12 10 8 8 8 7 7 7 7 6 6 8 11 11 10 10 9 9 7 6 7 8
62 61 60 60 58 55 54 53 52 52 50 47 48 49 48 53 55 51 47 42 37 37 38 38 38 36 34 32 30 31 32 33 32 26 22 21 18 17 16 14 13 11 10 10 9 9 8 8 8 7 5 7 9 10 10 10 10 9 7 6 6 7
61 60 60 60 59 56 55 54 52 53 51 49 50 48 45 49 53 51 48 45 41 39 39 40 41 38 35 33 31 31 33 34 34 29 24 23 20 18 17 16 14 13 12 12 11 10 9 9 9 8 5 5 8 9 9 10 11 10 8 7 6 6
60 59 59 60 60 58 56 55 53 53 52 51 52 50 46 44 48 51 51 48 44 42 43 43 43 40 37 34 31 32 34 35 37 33 26 24 22 21 19 17 16 15 14 14 13 13 11 10 10 8 6 4 6 7 8 10 10 10 9 7 6 5
58 59 59 60 61 59 57 56 55 53 52 52 51 51 48 44 42 45 49 49 46 46 47 44 42 40 37 34 33 34 34 35 38 35 29 28 26 23 20 18 18 17 16 16 15 15 13 12 11 9 7 4 4 5 6 8 10 10 10 8 6 4
55 57 58 60 62 60 58 57 56 54 53 52 51 51 50 48 44 41 43 47 49 50 48 44 42 39 37 36 35 35 34 35 39 36 32 32 30 25 22 21 21 19 18 18 17 16 14 13 12 10 8 5 4 4 5 7 9 9 11 10 8 6
51 54 56 58 61 61 59 59 57 55 54 52 52 52 51 50 48 43 40 42 50 54 49 45 42 38 38 39 37 36 34 36 40 35 31 34 32 27 25 24 23 22 20 19 18 17 15 13 12 10 8 6 5 4 4 5 7 9 10 10 10 8
47 50 53 56 60 60 60 60 58 56 55 54 53 54 51 50 49 47 41 38 46 55 52 48 45 41 40 41 39 37 35 38 39 31 29 32 33 31 29 27 25 23 21 20 18 16 14 13 11 10 8 7 6 5 5 5 6 8 9 10 10 9
44 45 49 53 58 60 60 61 59 57 56 55 55 55 52 50 48 47 44 37 38 47 52 50 47 43 41 41 41 39 36 40 39 30 27 30 33 34 30 28 26 23 21 20 18 17 15 13 11 9 8 8 8 7 6 6 6 7 8 9 10 9
43 43 45 49 55 59 60 61 60 58 57 56 58 57 54 52 51 49 47 43 39 41 47 48 46 44 42 41 42 41 40 43 40 31 28 32 35 34 30 29 26 23 21 19 18 17 15 13 11 9 9 9 9 8 7 6 7 7 7 9 10 9
42 42 43 46 52 57 59 61 61 60 59 59 58 55 51 50 50 50 50 50 46 43 43 46 47 45 44 43 44 45 45 45 41 34 31 36 37 33 32 30 26 22 21 20 18 16 14 13 12 10 10 10 10 9 8 7 7 7 8 8 9 9
40 42 43 45 49 55 58 60 61 61 60 60 58 55 51 48 47 47 48 49 49 46 43 45 48 47 45 45 46 48 48 48 44 36 34 39 38 35 35 32 26 24 22 20 18 16 14 13 13 12 12 12 11 9 8 8 8 8 8 8 8 8
40 41 43 44 46 52 57 60 62 62 62 60 58 55 51 48 47 45 45 45 46 46 43 44 48 49 47 48 49 48 49 49 44 36 37 41 40 37 37 32 27 25 23 22 20 18 16 16 15 14 14 14 13 10 9 9 9 8 9 8 8 8

ECMWFFLT2_500_spd_216.txt.gz
Wind_Speed
12 12 15 19 21 22 23 23 24 23 20 18 15 14 14 14 15 18 17 14 14 11 8 5 6 7 8 9 11 12 15 15 13 11 9 8 8 10 10 9 8 7 6 7 8 7 7 6 6 6 4 5 10 12 12 12 15 18 19 19 18 18
14 14 14 17 21 23 24 24 24 23 22 19 17 16 15 15 16 20 20 18 16 11 7 4 6 8 8 9 11 12 14 14 12 9 8 8 9 10 10 9 8 6 4 6 7 5 5 4 4 3 3 7 10 10 10 12 15 17 18 18 18 18
21 18 16 17 19 21 23 25 25 23 22 21 19 18 17 17 18 20 21 20 19 13 9 6 6 8 9 9 10 11 13 13 10 8 7 8 10 10 10 10 8 5 4 6 6 4 3 3 3 3 5 8 9 9 10 12 14 16 17 17 17 18
26 24 21 20 20 20 21 23 25 24 23 22 22 20 18 18 17 16 18 19 19 16 11 8 7 8 10 9 9 10 11 11 9 6 7 8 9 10 11 11 8 6 6 5 5 5 4 2 2 4 7 8 9 9 10 12 13 15 16 16 17 18
28 27 24 24 23 20 21 22 24 25 24 23 23 22 20 19 17 14 16 17 19 19 13 9 8 8 10 9 8 9 10 10 8 6 6 8 9 11 11 9 7 7 6 5 5 5 3 1 3 5 7 7 8 9 10 11 12 14 15 16 17 18
29 29 26 26 26 23 22 22 22 23 24 24 23 23 22 21 19 16 17 17 18 20 16 13 11 9 11 8 7 8 9 9 7 6 6 8 10 10 7 6 6 7 6 5 6 4 2 0 3 5 5 6 8 9 10 11 12 13 14 16 17 18
30 29 28 28 29 26 24 23 22 22 22 23 23 24 23 23 22 19 21 20 19 19 17 16 13 11 12 8 6 7 8 8 6 5 6 8 10 8 6 6 6 6 5 6 6 4 2 1 3 4 4 5 7 8 10 11 12 12 13 15 17 18
31 30 29 30 30 29 26 24 22 21 21 22 24 25 25 25 25 24 25 24 22 20 18 18 15 13 12 8 6 6 7 7 6 5 7 9 8 5 6 7 7 6 5 6 6 4 0 2 3 3 3 4 6 7 9 11 11 12 13 14 16 17
31 31 31 30 30 30 28 26 24 22 21 22 24 25 26 28 27 26 27 26 24 22 21 20 17 15 12 8 7 7 7 7 6 6 7 9 7 4 6 8 7 6 5 5 6 4 1 2 3 3 2 3 6 7 8 10 11 11 12 13 15 16
30 31 32 31 30 30 28 27 25 24 23 23 24 25 27 28 27 26 28 27 26 25 25 22 18 16 13 10 9 8 7 7 7 6 7 8 5 4 7 9 8 6 6 4 4 2 2 1 3 2 2 3 5 7 8 10 10 10 11 12 14 15
29 30 32 31 31 30 28 27 27 26 25 25 25 26 28 29 27 26 28 29 28 28 28 25 20 16 14 12 10 9 7 6 7 7 7 7 6 6 8 8 7 6 6 4 3 1 1 1 3 2 1 3 5 6 7 9 9 9 10 11 13 14
29 30 31 31 30 29 28 27 28 27 27 26 25 26 28 29 28 27 29 31 32 31 31 28 21 17 17 14 12 10 8 7 7 8 8 8 7 7 8 7 5 5 6 4 3 0 1 1 2 1 1 3 4 5 6 8 8 8 9 11 12 14
30 32 31 30 28 27 27 27 28 28 28 27 26 27 27 28 28 27 28 32 35 35 33 31 24 21 21 17 13 12 10 7 8 9 8 8 7 7 7 6 4 5 6 5 2 1 1 1 2 2 3 3 3 4 5 7 7 7 8 10 12 13
31 32 31 29 27 27 27 28 29 30 30 30 28 28 27 28 28 28 28 28 33 34 35 35 28 24 23 18 15 14 11 8 8 10 9 8 8 7 6 5 4 5 6 5 2 2 1 2 2 2 3 4 4 4 4 6 6 7 8 9 11 12
30 31 31 29 28 28 28 28 29 30 32 32 31 30 28 28 27 28 29 26 28 28 31 38 33 27 25 19 17 16 12 10 9 9 9 9 9 8 7 6 5 5 6 5 3 3 2 2 2 2 4 4 4 3 3 5 6 6 7 8 9 10
30 31 32 31 30 31 31 29 30 30 32 33 32 31 30 29 27 28 28 25 27 24 24 35 37 28 26 22 19 18 13 11 10 9 10 10 10 8 8 8 7 6 7 6 4 4 3 2 2 3 5 5 5 3 3 4 5 6 6 7 7 9
35 36 37 37 35 34 33 31 31 31 32 33 33 33 32 31 28 28 27 24 26 23 20 30 36 31 27 24 21 19 14 12 10 10 11 12 10 9 9 11 10 7 7 7 6 5 3 2 3 5 5 5 5 4 3 4 4 4 5 5 6 8
44 44 45 44 41 39 37 34 33 33 32 33 33 34 34 33 31 29 28 24 24 23 20 24 31 33 30 26 23 20 15 12 11 11 12 12 10 10 12 13 13 9 8 8 7 7 4 2 4 6 5 6 5 4 3 3 3 3 4 4 5 7
50 50 49 47 45 42 40 36 36 35 34 33 33 34 34 34 33 31 30 27 25 25 23 22 26 32 32 27 24 20 16 13 12 13 13 11 9 10 11 13 13 10 9 10 8 8 6 3 5 6 5 5 4 3 3 2 2 2 3 4 5 6
54 53 52 50 47 44 40 38 39 38 36 34 34 34 35 36 35 34 33 31 28 25 25 24 25 32 34 29 26 21 17 15 14 14 13 11 11 11 10 11 10 10 10 10 9 9 7 5 6 6 6 5 4 2 1 2 2 1 2 3 4 5
56 56 55 52 50 47 42 39 41 41 38 36 37 37 36 37 36 36 35 34 31 27 27 26 27 34 37 31 27 23 19 17 16 16 14 13 13 12 11 9 9 10 11 10 10 10 8 7 7 6 5 5 4 3 2 2 2 1 2 2 3 4
59 58 57 55 53 50 46 42 42 43 41 39 41 41 38 38 38 38 38 36 34 31 29 26 25 33 40 33 29 26 20 19 18 17 17 16 15 13 12 11 10 12 12 11 10 10 9 8 7 6 5 4 3 3 3 4 3 2 2 2 3 4
61 59 58 57 54 52 49 46 45 46 45 43 44 44 41 40 41 41 40 39 37 33 30 28 25 30 36 35 32 28 23 22 21 20 18 18 17 15 16 14 13 13 13 13 11 10 9 7 6 5 5 4 3 3 4 4 3 3 3 3 3 4
62 61 60 59 56 54 52 49 48 48 48 46 47 48 45 43 42 42 42 40 39 35 31 30 28 29 32 34 33 30 27 24 24 22 20 20 20 19 19 18 17 15 15 14 12 10 9 6 5 4 4 4 3 2 3 3 3 3 3 3 3 3
63 62 62 61 60 58 54 50 49 51 51 49 48 51 48 45 43 42 42 42 40 37 33 32 33 31 30 33 33 31 29 26 26 25 22 22 23 22 21 20 20 18 17 16 13 11 9 6 5 4 3 3 2 1 2 3 3 3 3 3 3 3
64 64 64 64 63 61 56 52 50 52 53 50 49 51 50 46 44 43 42 43 42 39 35 34 36 34 30 33 35 32 30 29 28 27 24 24 25 25 23 21 21 21 18 17 15 12 10 7 6 5 4 3 2 1 1 2 3 3 3 3 3 4
66 66 66 67 66 64 60 55 52 53 53 50 49 51 52 49 47 45 44 45 44 42 38 36 38 36 30 32 38 35 32 31 30 29 27 26 28 27 25 23 23 24 21 17 15 13 11 9 8 6 6 5 4 3 3 3 3 3 4 4 4 4
71 71 71 71 70 67 64 60 56 54 54 51 49 50 53 52 49 48 47 47 46 44 41 39 40 38 31 33 39 39 35 33 32 31 29 28 30 30 28 25 24 24 23 19 16 14 13 11 9 8 8 7 6 5 5 5 3 3 4 5 5 5
74 74 74 74 73 70 67 63 59 56 54 52 50 50 53 54 52 51 49 48 47 45 44 42 40 39 34 34 39 41 38 36 34 33 31 30 33 33 31 28 24 24 24 22 18 16 15 13 11 10 9 9 8 7 7 6 4 2 3 4 5 6
71 73 75 75 74 72 69 66 61 57 55 54 52 51 54 55 54 53 51 50 48 46 46 44 42 41 38 37 41 43 39 37 36 35 33 33 35 36 33 31 26 24 25 24 20 17 16 15 13 12 11 11 10 9 8 7 5 2 2 3 4 5
66 68 71 73 73 72 70 67 64 59 57 56 55 52 53 55 55 54 53 51 49 48 47 46 44 44 42 39 42 44 41 39 39 38 36 35 36 37 35 32 28 25 26 24 20 19 18 17 16 14 13 12 12 11 10 8 6 4 3 3 3 4
63 64 67 69 70 70 70 68 66 63 60 58 57 54 53 55 55 55 54 52 51 50 48 47 44 44 43 40 41 45 44 42 41 40 38 37 38 38 35 32 29 26 26 25 21 20 20 19 18 16 14 14 14 13 12 10 8 5 4 4 4 4
62 63 64 66 66 68 68 67 67 66 61 59 60 57 54 55 55 55 55 54 53 52 50 47 42 41 43 42 41 45 46 44 42 41 39 38 39 39 35 32 30 26 26 26 23 22 22 21 19 17 15 15 15 15 14 12 10 7 6 6 6 5
61 63 65 66 65 66 67 66 66 66 62 58 60 60 57 55 56 56 56 55 55 54 52 49 45 40 40 41 42 45 47 46 44 43 42 41 41 41 37 33 31 28 27 27 25 24 23 21 20 18 17 16 16 16 16 14 12 9 8 7 7 7
56 59 61 63 63 65 67 64 62 64 62 58 58 60 59 57 57 57 56 56 56 56 55 54 53 49 44 42 43 46 48 47 48 46 45 44 43 43 39 35 33 31 28 28 27 25 24 21 20 19 18 17 17 18 18 16 14 12 10 9 8 8
53 54 55 58 59 61 65 64 61 61 61 59 59 60 60 59 59 58 58 57 58 59 59 57 55 53 51 47 45 46 48 49 50 49 47 46 44 44 42 38 36 34 31 29 28 28 26 22 21 20 20 18 18 19 19 18 16 14 12 10 10 10
53 53 53 55 57 57 60 62 62 60 59 60 62 61 59 60 60 60 60 59 59 60 60 57 53 50 50 49 47 47 48 49 51 51 49 48 46 45 44 41 39 37 35 32 31 30 29 25 22 22 21 20 20 20 20 18 17 15 13 11 11 12

ECMWFFLT2_500_spd_222.txt.gz
Wind_Speed
36 34 32 30 30 29 29 30 31 30 28 27 30 30 31 28 17 12 13 16 16 15 13 16 18 15 13 12 10 8 5 4 4 5 5 4 4 4 4 4 3 4 5 5 3 2 2 3 4 3 4 5 5 5 5 8 12 13 14 14 14 15
39 36 33 31 31 30 30 30 32 32 29 31 34 32 32 26 15 11 13 15 16 15 12 14 20 18 14 13 10 8 5 3 4 4 5 4 3 3 4 5 5 5 4 4 3 1 1 3 3 2 3 3 4 4 4 9 11 12 13 13 14 14
41 37 34 32 31 30 29 31 31 32 32 34 36 34 31 25 17 14 14 15 15 14 10 12 19 20 16 13 10 8 6 3 4 4 5 4 3 3 4 6 6 6 5 3 2 1 0 1 1 0 1 2 3 3 4 9 10 11 13 13 13 14
43 38 34 32 31 31 31 32 31 32 32 31 32 33 29 25 21 18 17 16 15 13 10 11 19 21 16 13 10 7 6 4 4 4 5 4 3 4 5 6 7 6 5 3 1 1 1 1 1 1 0 1 2 3 5 9 10 11 12 12 12 13
44 39 35 35 33 33 33 31 30 31 32 31 30 31 29 26 24 20 19 18 15 13 12 11 16 20 16 13 11 8 7 5 4 4 5 5 4 4 5 6 6 6 5 2 1 1 1 2 2 1 0 1 2 3 6 8 9 10 11 12 11 12
43 42 38 37 35 34 34 30 29 29 30 30 27 26 27 25 23 21 20 19 16 13 13 11 15 19 16 13 11 9 7 5 4 4 5 5 4 5 4 5 5 5 4 3 2 1 2 3 2 2 1 0 1 3 5 7 9 10 10 11 11 12
41 44 43 39 35 34 33 31 29 27 26 27 25 24 24 23 23 22 22 20 16 14 13 13 17 19 16 14 12 10 8 6 5 4 4 4 5 5 4 5 5 4 3 2 2 2 3 3 3 3 2 2 1 2 4 6 8 9 9 10 11 12
40 40 42 40 37 37 34 30 30 28 26 26 27 26 24 24 24 24 23 21 17 15 14 14 19 20 16 15 13 10 9 6 5 4 4 5 5 5 4 5 4 3 3 3 3 3 3 3 3 4 4 3 1 2 3 6 7 7 7 10 11 12
42 37 39 40 40 38 34 30 28 28 28 26 26 26 25 25 25 24 24 23 20 17 15 14 17 21 17 16 15 12 10 8 6 5 4 5 5 5 5 4 3 3 3 3 3 2 2 3 3 5 5 4 2 2 3 4 6 7 7 9 10 10
45 38 37 40 40 37 32 30 28 27 28 28 26 25 25 25 25 25 24 24 23 20 17 15 16 21 20 18 17 14 10 9 7 6 5 5 5 5 4 4 3 2 1 2 2 2 2 3 4 6 6 4 2 2 2 3 5 6 6 9 9 9
47 40 38 37 38 37 34 30 29 28 28 27 26 25 25 25 26 25 25 24 24 21 19 17 17 20 22 20 19 16 12 10 8 7 7 6 5 4 4 4 3 2 1 1 1 1 2 4 5 6 7 5 3 2 1 2 4 5 6 8 9 8
49 43 43 40 38 37 37 34 30 28 28 27 24 24 24 25 25 25 25 25 24 22 20 19 18 19 23 24 21 17 13 11 9 8 8 7 6 5 5 5 5 3 1 2 2 2 3 5 5 6 6 5 4 3 2 1 3 4 5 7 8 7
50 45 46 45 41 37 36 36 34 30 28 27 24 23 23 23 24 25 25 25 25 24 22 21 21 20 22 24 23 19 15 12 10 9 9 8 7 6 6 6 6 5 3 3 3 3 4 5 5 6 6 6 5 4 2 1 2 3 5 6 7 7
50 44 45 46 45 40 36 35 36 34 29 27 26 24 23 22 23 24 25 26 25 26 24 22 22 21 21 23 23 20 17 14 12 10 10 9 8 6 7 7 6 6 6 5 4 5 5 5 5 5 6 7 6 5 3 2 2 3 4 5 5 6
48 43 44 44 44 41 36 34 35 36 33 30 28 26 25 23 23 23 24 25 25 26 25 24 22 21 22 23 22 21 20 16 13 12 11 11 9 7 7 8 7 7 8 7 6 6 6 6 5 4 6 7 6 5 4 3 2 2 3 3 4 5
48 43 44 44 42 41 37 33 32 34 34 33 30 27 26 26 24 23 22 23 24 25 26 26 23 21 22 23 21 21 23 19 15 14 13 12 11 9 9 9 8 8 8 8 7 7 7 7 6 5 5 6 6 6 6 5 3 2 2 2 3 3
48 44 44 45 45 42 38 34 31 31 31 31 31 29 27 26 25 23 22 21 21 23 25 27 25 21 20 22 21 22 24 22 18 16 15 14 13 11 11 11 10 9 9 8 8 8 8 8 7 6 5 6 6 6 7 5 4 2 2 1 2 2
48 46 43 44 46 43 38 36 31 29 28 26 26 27 26 26 25 23 22 21 20 20 22 25 25 24 21 22 23 24 25 24 20 18 17 16 15 13 13 13 12 11 10 9 8 9 9 9 8 6 6 6 6 7 7 5 4 3 2 1 1 1
49 50 45 44 45 43 38 36 32 27 27 24 22 23 24 24 24 23 23 21 20 19 19 21 23 24 23 22 22 23 24 25 23 21 19 18 17 15 15 14 13 11 10 10 9 10 11 10 9 7 6 6 6 6 6 5 4 3 2 1 0 1
51 53 49 46 44 39 35 33 31 26 24 23 21 23 23 24 23 22 22 21 21 20 19 20 20 22 23 22 21 21 21 23 26 25 22 20 19 18 17 16 14 12 11 11 11 10 11 11 10 8 7 6 6 5 4 4 4 3 2 1 1 2
52 54 49 46 40 35 32 28 26 25 24 24 24 25 25 25 23 21 21 21 22 21 21 21 21 20 21 21 21 21 20 21 26 29 25 23 22 20 19 16 14 13 12 12 12 12 12 12 10 8 7 6 5 4 3 3 3 3 3 3 3 3
56 57 52 48 43 36 30 26 25 26 27 27 28 28 27 26 25 22 21 20 21 22 22 22 23 22 20 20 20 21 21 21 26 33 29 25 24 21 19 16 14 14 13 13 13 12 12 12 11 9 7 6 5 4 3 3 3 3 3 4 4 3
62 63 57 53 52 46 34 28 29 30 31 31 31 30 29 27 25 23 21 21 21 22 24 24 24 24 22 20 20 21 21 21 27 35 31 27 24 22 20 17 15 15 15 15 15 13 13 12 12 10 8 7 6 5 4 3 2 2 3 4 4 4
54 60 60 57 54 48 39 35 34 35 35 35 34 32 30 27 24 22 21 22 23 24 25 26 26 25 24 22 21 21 21 20 27 35 32 28 25 23 21 18 17 17 17 17 16 14 13 13 12 11 10 9 7 6 5 4 3 2 2 2 2 3
41 45 50 53 48 42 39 38 37 37 38 37 37 34 30 26 24 23 24 24 26 27 27 27 27 26 25 24 23 22 21 19 25 33 31 29 27 25 23 21 19 19 19 19 18 16 15 14 13 12 11 10 8 7 6 5 3 2 1 0 0 1
43 40 39 42 42 40 40 39 37 37 37 37 36 34 31 29 29 28 28 28 28 29 29 28 28 28 27 26 25 23 22 21 23 28 31 30 28 27 25 23 21 21 21 21 20 19 17 15 14 13 12 11 10 8 6 5 3 2 1 1 1 1
46 43 40 39 38 39 41 41 39 37 35 35 36 37 37 37 37 34 32 32 31 30 30 30 30 29 29 28 27 26 24 24 24 25 30 32 29 28 27 25 24 23 23 23 21 20 19 18 16 14 13 12 11 9 7 5 4 2 1 1 2 1
47 46 44 44 43 43 44 44 43 40 38 38 40 42 43 43 41 39 37 35 35 33 32 33 32 31 31 30 29 28 27 26 26 25 29 34 33 31 31 28 26 26 25 24 23 22 21 20 19 16 14 13 12 10 9 7 5 3 2 1 2 1
49 48 47 48 48 49 51 52 53 51 47 44 45 45 46 47 45 41 40 38 37 36 34 34 34 34 33 32 31 30 29 28 28 27 28 35 37 34 34 31 29 28 27 25 25 25 24 23 21 19 16 14 13 11 10 9 7 5 3 2 1 1
51 51 50 50 50 52 54 58 58 55 49 47 49 48 47 49 48 44 43 41 40 38 36 35 36 36 36 35 34 32 32 30 30 29 29 35 43 39 36 34 32 31 29 28 28 28 27 25 24 22 19 16 15 14 12 11 9 7 5 4 2 1
51 52 52 53 53 53 55 57 58 55 51 49 52 52 50 51 50 47 45 44 42 40 38 37 37 38 38 37 36 35 34 32 31 31 30 36 47 44 38 38 35 34 32 31 31 30 29 28 26 24 22 19 16 15 14 13 12 10 8 6 4 3
53 53 53 54 54 55 56 58 59 57 54 52 54 55 54 53 52 50 48 47 45 43 42 40 38 39 39 39 38 37 36 34 32 31 30 35 48 46 40 40 38 37 36 33 33 32 31 30 27 25 24 22 19 17 16 15 14 13 10 8 6 5
54 55 55 55 56 56 57 59 60 60 57 55 56 57 56 56 54 53 52 50 49 47 45 43 41 40 40 40 40 39 38 36 33 32 29 32 44 46 41 41 40 39 38 36 35 33 33 32 29 27 26 24 21 18 17 16 16 15 13 10 8 7
52 54 56 57 58 58 59 59 61 61 60 58 58 59 59 58 57 56 56 54 52 50 48 46 44 42 41 42 42 42 41 39 36 35 32 32 39 44 44 43 41 41 40 39 37 35 34 34 32 30 28 25 23 20 18 18 17 16 15 13 11 9
50 52 54 56 57 59 60 61 61 62 62 60 59 60 61 62 60 59 58 56 55 53 52 50 47 45 44 44 45 45 44 44 42 39 37 36 37 41 45 45 44 44 43 41 38 36 35 34 33 31 29 27 25 22 20 19 19 18 17 16 14 12
49 51 53 54 55 57 59 61 62 63 63 63 62 61 62 63 63 62 60 59 58 56 54 53 51 48 46 46 47 48 48 47 45 41 40 39 39 39 43 47 47 45 45 43 40 38 37 35 33 32 31 30 28 25 22 20 20 19 19 18 16 14
49 51 52 54 55 56 58 59 61 62 63 63 63 63 63 64 65 65 63 62 61 60 57 55 53 51 49 48 49 51 51 49 45 42 41 41 41 40 41 45 48 47 46 45 43 41 40 37 34 33 32 32 30 28 24 22 21 20 20 20 18 17